Terminal Aerodrome Forecast
Issued by NWS

Home | Current Version | Previous Version | Text Only | Print | Product List | Glossary On
Versions: 1 2 3 4 5 6 7 8 9 10 11 12 13 14 15 16 17 18
000
FTUS43 KFGF 230500
TAFDVL
TAF
KDVL 230520Z 2306/2406 05012KT P6SM OVC025
      TEMPO 2306/2308 OVC040
     FM231000 05012KT P6SM OVC025
      TEMPO 2310/2313 5SM BR OVC010
     FM231500 07014KT P6SM OVC015
      AMD LTD TO CLD VIS AND WIND=

USA.gov is the U.S. government's official web portal to all federal, state and local government web resources and services.